User: anonymous   Login
Location: Mentone
(34.5413°N, 85.5351°W)
Time: 23:53:06
(UTC-05:00)
Language:

UOSAT-12 - Orbit

View from above orbital plane
View from above orbital plane
View from above satellite
View from above satellite

Ground track
Ground track

The orbit data is extracted from the following two-line orbital elements,

1 25693U 99021A   15107.40852069  .00000662  00000-0  10401-3 0  9997
2 25693 064.5569 045.4716 0045390 248.3292 250.1772 14.80400896862943
Epoch (UTC): 17 April 2015 09:48:16
Eccentricity: 0.0045390
inclination: 64.5569°
perigee height: 596 km
apogee height: 660 km
right ascension of ascending node: 45.4716°
argument of perigee: 248.3292°
revolutions per day: 14.80400896
mean anomaly at epoch: 250.1772°
orbit number at epoch: 86294

The dashed part of the orbit path shows where the satellite is in the earth's shadow,  

DLR